Meteo Giornale » Osservazioni meteo Svizzera » Payerne

ore: 13:50 - Osservazioni Meteo Payerne
Lat. 46° 49' N Lon. 6° 57' E Alt. 490 metri s.l.m.

sereno Europe/Zurich

24 °C

Sereno

Temp. 24 Ore

11 °C

25 °C

Nord

5.5 Km/h

Dew point 11 °C

Umidità 43 %

Visibilità  10 Km

Il sole sorge alle ore 05:50

Il sole tramonta alle ore 21:25

Data e Ora Cielo e Fenomeni T °C DP °C Um. % Pres. hPa Vis. km Vento km/h
Oggi h: 13:50 sereno Sereno 24 11 43 1020 10 N 5.5
Oggi h: 13:20 sereno Sereno 23 11 46 1021 10 N/NE 7.4
Oggi h: 12:50 sereno Sereno 22 11 49 1021 10 N/NE 7.4
Oggi h: 12:20 sereno Sereno 22 10 46 1021 10 E 9.3
Oggi h: 11:50 sereno Sereno 21 10 49 1022 10 E 9.3
Oggi h: 11:20 sereno Sereno 20 11 56 1022 10 NE 7.4
Oggi h: 10:50 sereno Sereno 19 10 55 1022 10 NE 7.4
Oggi h: 10:20 sereno Sereno 19 11 59 1022 10 N 3.7
Oggi h: 09:50 sereno Sereno 17 11 67 1022 10 N 3.7
Oggi h: 09:20 sereno Sereno 18 10 59 1022 10 N 0
Oggi h: 08:50 sereno Sereno 16 11 72 1022 10 N 0
Oggi h: 08:20 sereno Sereno 15 11 76 1022 10 N 0
Oggi h: 07:50 sereno Sereno 14 11 82 1022 10 N 0
Oggi h: 07:20 sereno Sereno 12 10 87 1022 10 N 5.5
Oggi h: 06:50 sereno Sereno 11 10 93 1022 10 N 3.7
Oggi h: 05:50 sereno Sereno 11 9 87 1022 10 N 0
Oggi h: 05:20 sereno Sereno 11 9 87 1022 10 N 3.7
Oggi h: 04:50 sereno Sereno 11 10 93 1022 10 N 5.5
Oggi h: 04:20 sereno Sereno 12 10 87 1022 10 N 5.5
Oggi h: 03:50 sereno Sereno 12 10 87 1022 10 N 3.7
Oggi h: 03:20 sereno Sereno 12 10 87 1022 10 N 5.5
Oggi h: 02:50 sereno Sereno 13 10 81 1022 10 N 3.7
Oggi h: 02:20 sereno Sereno 13 10 81 1022 10 N 3.7
Oggi h: 01:50 sereno Sereno 14 10 76 1022 10 N 3.7
Oggi h: 00:50 sereno Sereno 15 10 72 1022 10 N 1.8
Oggi h: 00:20 sereno Sereno 16 9 63 1022 10 N 0
Ieri h: 23:50 sereno Sereno 16 9 63 1022 10 N 0
Ieri h: 23:20 sereno Sereno 16 10 67 1022 10 N 0
Ieri h: 22:50 sereno Sereno 16 10 67 1022 10 N 0
Ieri h: 22:20 sereno Sereno 18 10 59 1022 10 N 5.5
Ieri h: 21:50 sereno Sereno 18 10 59 1022 10 N 5.5
Ieri h: 21:20 sereno Sereno 19 9 52 1021 10 NE 9.3
Ieri h: 20:50 sereno Sereno 21 9 46 1022 10 NE 11.1
Ieri h: 20:20 sereno Sereno 23 9 40 1022 10 NE 13
Ieri h: 19:50 sereno Sereno 24 8 35 1021 10 E/NE 14.8
Ieri h: 19:20 sereno Sereno 24 9 38 1021 10 NE 16.7
Ieri h: 18:50 sereno Sereno 24 9 38 1022 10 NE 16.7
Ieri h: 17:50 sereno Sereno 25 9 36 1022 10 NE 16.7
Ieri h: 17:20 sereno Sereno 24 10 41 1022 10 NE 18.5
Ieri h: 16:50 sereno Sereno 24 10 41 1022 10 NE 18.5
Ieri h: 16:20 sereno Sereno 24 10 41 1023 10 NE 20.3
Ieri h: 15:50 sereno Sereno 24 10 41 1023 10 NE 13
Ieri h: 15:20 sereno Sereno 24 11 43 1023 10 NE 20.3
Ieri h: 14:50 sereno Sereno 23 11 46 1023 10 NE 18.5